Location: Broletto
(44.6000°N, 10.5833°E)
Time: 02:13:35
(UTC+00:00)

SL-16 R/B - Pass Details

Date: 18 April 2021
Orbit: 840 x 849 km, 71.0° (Epoch: 15 May)

Event Time Altitude Azimuth Distance (km) Brightness Sun altitude
Rises 20:28:52 0° 339° (NNW) 3,422 6.5 -22.6°
Reaches altitude 10° 20:31:29 10° 346° (NNW) 2,482 5.4 -22.9°
Maximum altitude 20:36:51 41° 56° (ENE) 1,219 2.9 -23.5°
Enters shadow 20:37:46 38° 80° (E) 1,272 2.8 -23.7°
